TITAN 3C TRANSTAGE DEB, 43452

Orbit data source: Space-Track

TITAN 3C TRANSTAGE DEB, 43452 is space debris in GEO originally from a launch on Sun, 09 Feb 1969 UTC launched from the Air Force Eastern Test Range (AFETR). Debris objects in space refer to the collection of defunct objects orbiting the Earth. Examples of debris include non-operational satellites, rocket bodies, and fragments generated from explosions, collisions, or faulty payload assembly.

Not visible in the next 10 days
Identifier
43452, 1969-013K
Orbit
GEO
Country
Flag of USUS
Related business
Manufacturer
Martin Marietta
Mission
Spacecraft
Bus & Motor
Unknown
Mass
Unknown
Launch date (UTC)
1969-02-09 (57 years ago)
Launch vehicle
Unknown
Launch site
Air Force Eastern Test Range (AFETR)
Object type
Payload
Rocket body
Debris
Shape & HBR
Unknown shape, 1.1 m
Radar Cross Section
RCS unknown

Expand to show TLE details & history
Last TLE update: 2 months ago

TLE from 2 months ago
0 TITAN 3C TRANSTAGE DEB
1 43452U 69013K   26011.54725160 -.00000224  00000-0  00000-0 0  9996
2 43452   0.7943 136.6414 0549795 335.1951 254.1098  1.03158731 29171
Epoch: 2026-01-11T13:08Z
TLE epoch observation values (Epoch: 2026-01-11T13:08:02.538Z)
Latitude
-0.55588°
Longitude
51.93003°
Altitude
35,732.511 km
Speed
3.049 km/s
True Right ascension
23h 59m 59s
True Declination
0° 33' 19"
Sunlit
Object was in daylight at epoch
Visualization orbit readout
Latitude
Unknown
Longitude
Unknown
Altitude
Unknown
Speed
Unknown
Apparent Right ascension
Unknown
Apparent Declination
Unknown
Sunlit
N/A
Visualization observer readout
Local Sidereal Time
10:30:54
Azimuth
Unknown
Elevation
Unknown
Doppler factor
Unknown
Orbital elements
Apogee altitude
37,272.108 km
Perigee altitude
32,722.506 km
Semi-major axis
41,375.444 km
Eccentricity
0.05498
Inclination
0.7943°
RAAN
136.6414°
Arg. of periapsis
335.1951°
True anomaly
248.17296°
Mean anomaly
254.1098°
Eccentric anomaly
251.12903°
Mean motion
0.25789 °/min
Orbital period
1,395.96 mins
BSTAR
0
Loading maneuver chart data...
Computing Atmospheric mass density...

Documentation

Showing up to 5 results
|